Probability
0 0 0 0 0 0 0 0 0 0 0 0 0 0 0 0 0 0 0 0 0 0 0 0 0 0 0 0 0 0 0 0 0 0 0 0 0 0 0 0 0 0 0 0
0 0 0 0 0 0 0 0 0 0 0 0 0 0 0 0 0 0 0 0 0 0 0 0 0 0 0 0 0 0 0 0 0 0 0 0 0 0 0 0 0 0 0 0
0 0 0 0 0 0 0 0 0 0 0 0 0 0 0 0 0 0 0 0 0 0 0 0 0 0 0 0 0 0 0 0 0 0 0 0 0 0 0 0 0 0 0 0
0 0 0 0 0 0 0 0 0 0 0 0 0 0 0 0 0 0 0 0 0 0 0 0 0 0 0 0 0 0 0 0 0 0 0 0 0 0 0 0 0 0 0 0
0 0 0 0 0 0 0 0 0 0 0 0 0 0 0 0 0 0 0 0 0 0 0 0 0 0 0 0 0 0 0 0 0 0 0 0 0 0 0 0 0 0 0 0
0 0 0 0 0 0 0 0 0 0 0 0 0 0 0 0 0 0 0 0 0 0 0 0 0 0 0 0 0 0 0 0 0 0 0 0 0 0 0 0 0 0 0 0
0 0 0 0 0 0 0 0 0 0 0 0 0 0 0 0 0 0 0 0 0 0 0 0 0 0 0 0 0 0 0 0 0 0 0 0 0 0 0 0 0 0 0 0
0 0 0 0 0 0 0 0 0 0 0 0 0 0 0 0 0 0 0 0 0 0 0 0 0 0 0 0 0 0 0 0 0 0 0 0 0 0 0 0 0 0 0 0
0 0 0 0 0 0 0 0 0 0 0 0 0 0 0 0 0 0 0 0 0 0 0 0 0 0 0 0 0 0 0 0 0 0 0 0 0 0 0 0 0 0 0 0
0 0 0 0 0 0 0 0 0 0 0 0 0 0 0 0 0 0 0 0 0 0 0 0 0 0 0 0 0 0 0 0 0 0 0 0 0 0 0 0 0 0 0 0
0 0 0 0 0 0 0 0 0 0 0 0 0 0 0 0 0 0 0 0 0 0 0 0 0 0 0 0 0 0 0 0 0 0 0 0 0 0 0 0 0 0 0 0
0 0 0 0 0 0 0 0 0 0 0 0 0 0 0 0 0 0 0 0 0 0 0 0 0 0 0 0 0 0 0 0 0 0 0 0 0 0 0 0 0 0 0 0
0 0 0 0 0 0 0 0 0 0 0 0 0 0 0 0 0 0 0 0 0 0 0 0 0 0 0 0 0 0 0 0 0 0 0 0 0 0 0 0 0 0 0 0
0 0 0 0 0 0 0 0 0 0 0 0 0 0 0 0 0 0 0 0 0 0 0 0 0 0 0 0 0 0 0 0 0 0 0 0 0 0 0 0 0 0 0 0
0 0 0 0 0 0 0 0 0 0 0 0 0 0 0 0 0 0 0 0 0 0 0 0 0 0 0 0 0 0 0 0 0 0 0 0 0 0 0 0 0 0 0 0
0 0 0 0 0 0 0 0 0 0 0 0 0 0 0 0 0 0 0 0 0 0 0 0 0 0 0 0 0 0 0 0 0 0 0 0 0 0 0 0 0 0 0 0
0 0 0 0 0 0 0 0 0 0 0 0 0 0 0 0 0 0 0 0 0 0 0 0 0 0 0 0 0 0 0 0 0 0 0 0 0 0 0 0 0 0 0 0
0 0 0 0 0 0 0 0 0 0 0 0 0 0 0 0 0 0 0 0 0 0 0 0 0 0 0 0 0 0 0 0 0 0 0 0 0 0 0 0 0 0 0 0
0 0 0 0 0 0 0 0 0 0 0 0 0 0 0 0 0 0 0 0 0 0 0 0 0 0 0 0 0 0 0 0 0 0 0 0 0 0 0 0 0 0 0 0
0 0 0 0 0 0 0 0 0 0 0 0 0 0 0 0 0 0 0 0 0 0 0 0 0 0 0 0 0 0 0 0 0 0 0 0 0 0 0 0 0 0 0 0
0 0 0 0 0 0 0 0 0 0 0 0 0 0 0 0 0 0 0 0 0 0 0 0 0 0 0 0 0 0 0 0 0 0 0 0 0 0 0 0 0 0 0 0
0 0 0 0 0 0 0 0 0 0 0 0 0 0 0 0 0 0 0 0 0 0 0 0 0 0 0 0 0 0 0 0 0 0 0 0 0 0 0 0 0 0 0 0
0 0 0 0 0 0 0 0 0 0 0 0 0 0 0 0 0 0 0 0 0 0 0 0 0 0 0 0 0 0 0 0 0 0 0 0 0 0 0 0 0 0 0 0
0 0 0 0 0 0 0 0 0 0 0 0 0 0 0 0 0 0 0 0 0 0 0 0 0 0 0 0 0 0 0 0 0 0 0 0 0 0 0 0 0 0 0 0
0 0 0 0 0 0 0 0 0 0 0 0 0 0 0 0 0 0 0 0 0 0 0 0 0 0 0 0 0 0 0 0 0 0 0 0 0 0 0 0 0 0 0 0
0 0 0 0 0 0 0 0 0 0 0 0 0 0 0 0 0 0 0 0 0 0 0 0 0 0 0 0 0 0 0 0 0 0 0 0 0 0 0 0 0 0 0 0
0 0 0 0 0 0 0 0 0 0 0 0 0 0 0 0 0 0 0 0 0 0 0 0 0 0 0 0 0 0 0 0 0 0 0 0 0 0 0 0 0 0 0 0
Wind_Speed
18 15 7 9 12 17 22 25 22 27 31 32 18 14 14 14 14 13 13 14 13 12 11 10 10 11 12 12 12 13 15 17 18 16 15 14 14 13 13 13 13 14 13 12
14 18 16 16 19 21 23 24 28 30 35 30 14 15 18 17 16 17 18 18 16 13 12 12 12 12 12 13 13 14 16 17 15 13 13 13 13 12 13 13 12 12 13 13
13 12 10 19 25 26 25 25 22 29 35 25 19 18 18 18 19 20 19 18 17 16 14 12 12 11 12 12 11 13 14 12 11 12 13 13 12 13 14 14 13 13 14 14
8 8 20 16 14 22 26 28 26 25 28 25 21 19 17 17 17 18 17 17 15 14 15 11 10 9 9 8 10 12 12 11 11 13 13 12 13 14 14 12 13 13 13 14
8 15 18 17 11 11 17 24 24 28 30 30 24 18 23 18 16 19 17 13 11 10 11 10 9 7 6 7 9 11 12 12 12 12 12 13 13 14 12 11 11 11 11 12
14 17 15 14 6 7 10 19 13 14 21 23 17 16 19 7 7 9 7 5 6 6 6 7 6 3 5 7 8 10 11 10 10 10 10 12 12 11 9 8 9 8 8 9
20 20 14 8 2 7 11 10 3 5 11 14 15 16 10 3 3 3 3 4 4 4 3 4 3 2 4 5 7 6 5 6 7 8 9 9 8 7 7 7 7 7 7 6
12 16 14 1 2 7 6 5 7 7 8 10 12 10 7 4 3 2 3 3 3 2 3 4 3 1 2 3 2 3 5 6 6 7 7 6 8 7 8 8 8 8 7 7
8 8 3 3 6 7 6 8 8 8 9 8 8 9 7 4 2 2 2 2 2 2 2 4 5 2 1 1 3 5 6 6 6 6 6 7 8 8 8 8 7 7 7 7
8 9 9 9 7 6 6 8 9 9 9 8 8 7 5 3 1 1 2 2 2 2 3 4 5 5 3 2 4 6 7 6 6 7 7 6 6 6 7 7 7 7 7 7
10 10 10 7 5 6 6 6 7 7 7 7 6 5 4 3 1 0 1 2 2 3 3 4 5 5 5 3 4 7 7 6 6 6 6 6 5 4 6 5 6 6 6 6
13 9 8 10 8 7 8 9 7 6 6 5 5 5 3 2 1 1 1 2 3 4 4 4 5 6 6 5 3 6 6 6 5 5 5 5 5 4 4 4 5 7 6 6
14 10 10 11 11 8 8 8 7 7 6 5 4 3 4 3 2 3 4 4 4 5 5 5 5 7 7 6 3 4 5 5 4 4 4 4 4 4 4 4 4 3 4 5
11 9 12 12 12 9 7 6 4 3 2 2 2 2 3 4 4 5 5 5 5 6 6 5 6 7 8 7 4 5 6 5 4 4 4 4 4 3 3 4 3 2 3 4
13 11 13 11 9 6 4 4 4 5 3 2 2 3 4 5 5 5 5 5 6 7 7 6 7 8 9 6 5 6 5 4 4 4 4 4 3 3 3 3 3 3 2 3
9 8 8 9 10 7 4 5 6 6 4 4 4 4 5 7 7 7 6 5 6 7 6 6 7 7 8 6 5 6 6 7 5 4 4 4 3 3 3 3 3 2 2 2
6 6 5 6 6 5 4 4 4 3 3 4 5 7 8 9 8 8 7 8 8 8 7 7 6 7 7 7 6 5 5 6 7 5 4 4 3 3 3 2 2 2 2 1
7 8 8 8 7 6 4 2 1 0 1 4 7 8 8 8 8 7 6 7 8 9 9 8 6 7 7 7 6 5 5 5 5 5 4 4 4 4 3 3 3 2 2 1
8 8 8 7 6 5 3 1 2 2 3 5 7 8 8 9 8 7 6 6 7 7 7 8 8 8 8 8 6 5 5 6 6 5 5 5 4 4 3 3 2 2 1 1
8 7 7 6 6 4 3 2 2 4 4 6 9 10 10 8 7 8 9 8 6 4 3 4 5 6 7 7 7 5 6 6 5 5 4 4 3 3 2 2 1 1 0 0
7 7 6 5 5 6 5 4 4 6 6 6 9 10 10 9 7 6 7 7 4 4 4 5 5 5 5 5 6 5 5 5 5 4 3 3 2 2 2 1 1 1 1 1
6 5 5 4 5 6 6 6 7 8 9 9 10 10 10 10 9 8 8 5 3 3 3 4 4 5 6 5 5 5 4 4 3 3 2 2 1 1 1 1 2 2 2 3
4 4 5 5 5 6 8 9 9 9 10 10 10 9 9 7 5 5 6 4 3 5 4 4 5 7 6 4 4 4 3 3 2 2 1 1 1 2 2 3 3 3 4 4
5 5 6 6 6 9 10 10 9 8 10 11 10 9 7 6 6 6 5 5 6 6 5 5 7 7 6 3 3 2 2 2 2 2 2 2 2 3 3 4 4 4 5 6
6 6 7 7 8 7 8 8 8 9 10 9 10 10 8 6 5 4 4 5 6 5 4 6 7 6 4 2 2 2 2 2 2 3 3 3 4 4 5 5 5 6 6 6
7 7 7 8 7 6 5 5 6 6 6 7 6 6 6 5 5 4 4 5 5 5 3 3 3 3 3 3 3 3 3 3 4 4 4 5 6 6 6 6 8 7 7 7
7 7 6 7 7 7 6 6 6 6 5 5 5 4 5 4 4 4 4 4 3 3 3 3 3 3 3 3 4 4 4 4 5 5 5 6 6 6 7 8 7 7 7 8
Wind_Direction
253 258 238 230 229 219 220 228 237 249 255 260 256 254 263 272 278 279 274 271 266 261 258 249 239 233 227 224 215 207 207 212 215 212 208 205 202 197 194 193 193 191 190 190
250 249 247 251 247 238 234 239 245 255 261 263 268 262 263 261 261 263 265 267 267 263 260 253 244 237 228 224 216 207 211 216 214 207 202 200 197 192 191 194 193 190 192 189
253 252 251 246 238 238 239 237 240 248 257 267 265 261 259 260 259 261 262 263 264 266 267 258 250 241 235 227 212 206 214 214 205 200 200 200 194 192 195 196 193 194 196 193
258 247 245 249 244 236 239 243 240 247 259 264 265 268 267 264 264 264 263 264 267 269 273 269 262 250 239 222 206 206 212 211 203 200 201 197 195 198 198 195 195 198 198 197
248 254 259 262 247 224 235 248 243 244 253 262 267 273 271 261 250 257 263 266 272 277 280 280 271 255 224 210 205 207 212 211 204 199 196 194 198 200 197 194 197 199 195 194
237 248 252 263 243 217 227 254 254 245 252 260 264 264 270 271 250 259 267 275 281 287 286 280 282 249 209 210 206 213 213 209 199 192 191 194 197 194 190 190 194 191 191 191
236 246 252 265 236 155 214 255 298 252 257 264 259 257 282 317 298 294 294 300 304 302 299 304 310 225 209 210 217 215 189 177 178 183 185 185 180 176 170 175 176 178 178 177
233 241 244 192 150 217 268 314 298 289 276 271 271 278 282 274 267 280 298 318 326 323 336 348 349 204 196 213 191 142 147 155 161 165 168 163 162 164 168 172 174 175 173 173
233 250 298 267 251 266 281 282 285 286 287 282 276 275 275 272 274 297 319 335 347 5 19 16 11 31 116 96 121 127 129 135 141 143 146 152 159 162 166 172 177 178 179 184
259 265 287 289 284 289 289 283 286 283 281 275 270 275 280 279 287 319 348 356 4 30 41 25 16 25 39 80 119 122 124 127 132 137 142 146 152 160 168 174 178 180 185 190
263 275 285 269 268 286 285 284 286 284 274 265 256 256 254 253 247 259 20 19 39 51 53 34 23 30 27 43 113 119 120 125 130 132 139 145 148 160 172 176 183 184 190 191
261 260 265 277 279 270 274 278 273 272 276 267 242 235 217 210 180 112 89 73 74 67 60 42 35 33 18 12 85 120 123 127 129 133 134 138 137 125 128 138 169 185 185 186
256 256 254 264 267 255 249 257 257 254 254 259 247 219 188 162 125 99 79 66 65 65 57 46 41 32 10 -0 51 101 118 121 121 124 130 135 140 144 137 116 114 132 169 184
248 249 256 256 259 258 243 240 235 235 242 230 200 164 147 126 112 97 81 71 74 71 58 47 46 27 358 357 52 84 97 96 105 113 121 129 136 140 144 152 145 108 68 74
251 247 255 263 262 255 237 220 224 227 195 156 129 139 141 131 113 88 72 78 81 69 52 44 43 19 355 7 54 75 82 86 87 94 98 104 110 116 122 130 131 123 104 72
295 283 267 261 258 258 248 231 232 231 197 166 138 116 102 101 94 78 55 54 78 67 43 39 35 4 356 15 53 66 67 68 75 86 89 91 96 106 112 119 126 134 132 101
315 299 300 277 271 275 265 264 254 230 185 158 137 122 114 108 98 84 72 67 74 67 47 37 24 5 14 26 45 61 67 66 63 71 71 75 80 86 93 106 115 116 93 66
321 310 308 299 296 293 292 318 333 144 148 136 130 128 126 122 115 106 101 98 88 67 40 21 29 25 30 35 43 57 65 65 62 65 66 65 65 67 73 81 95 102 90 57
327 322 322 320 319 308 307 341 16 49 82 120 122 114 105 103 107 106 96 81 74 64 26 5 32 39 38 40 53 56 67 72 70 64 64 69 67 64 68 75 82 87 91 78
334 334 335 343 354 355 1 24 58 73 83 108 111 107 101 97 100 99 91 75 51 38 9 17 32 41 38 36 44 55 62 67 70 67 63 62 63 62 61 66 72 81 93 240
339 343 353 5 17 22 23 39 72 81 81 95 106 108 105 99 94 96 96 85 44 29 44 46 46 44 41 43 46 55 58 60 61 59 58 56 55 52 46 38 12 295 277 267
345 355 15 31 44 44 39 50 68 81 86 87 90 98 101 97 91 80 66 71 60 43 53 55 53 51 50 49 51 54 56 58 57 53 48 40 25 359 329 303 287 279 271 266
5 22 41 51 61 67 61 58 62 72 79 80 80 81 82 79 72 87 85 55 48 58 56 54 64 63 54 47 47 47 46 43 36 26 7 339 312 295 285 280 275 271 269 266
34 45 55 65 73 73 68 63 64 67 72 70 64 61 68 77 65 50 60 56 50 50 45 40 48 50 43 35 32 27 18 3 344 325 308 293 282 277 274 273 272 270 268 266
48 53 55 60 63 63 69 74 72 67 67 65 58 51 46 45 61 54 45 41 40 44 37 27 29 28 20 9 359 343 325 309 300 292 281 277 274 271 269 267 265 267 266 264
56 58 54 50 47 48 53 61 64 58 62 66 55 42 39 38 43 41 38 36 32 30 23 9 0 357 350 339 325 312 302 297 290 281 276 275 273 271 269 268 268 265 265 264
56 54 53 50 39 35 42 50 56 51 45 53 57 36 28 26 25 21 17 11 4 358 351 341 335 330 322 314 306 299 293 288 283 279 277 273 271 269 270 269 268 267 266 264